Home   Weather   Astrakhan   Past weeks
Flag for Russia

Past Weather in Astrakhan, Russia — Yesterday and Last 2 Weeks

Now
43 °F

Clear.


Feels Like: 38 °F
Forecast: 74 / 48 °F
Wind: 8 mph from East

Location: Astrakhan

Current Time: Oct 17, 2019 at 8:01:37 am

Latest Report: Oct 17, 2019 at 7:30 am


Visibility: 10 mi

Pressure: 30.33 "Hg

Humidity: 76%

Dew Point: 36 °F

Location of AstrakhanLocation

Past Weather in Astrakhan — Graph

°F

Astrakhan Temperature Yesterday

Maximum temperature yesterday: 73 °F (at 2:30 pm)
Minimum temperature yesterday: 52 °F (at 12:00 am)
Average temperature yesterday: 60 °F

High & Low Weather Summary for the Past Weeks

 TemperatureHumidityPressure
High77 °F (Oct 6, 1:00 pm)100% (Oct 2, 7:30 am)30.36 "Hg (Oct 2, 7:30 am)
Low34 °F (Oct 10, 5:00 am)16% (Oct 4, 2:30 pm)29.56 "Hg (Oct 7, 2:30 am)
Average57 °F66%30.06 "Hg
* Reported Oct 2 7:00 am — Oct 17 7:00 am, Astrakhan. Weather by CustomWeather, © 2019

Note: Actual official high and low records may vary slightly from our data, if they occured in-between our weather recording intervals... More about our weather records

Advertising

Astrakhan Weather History for the Previous 24 Hours

Scroll right to see more
 ConditionsComfort  
Time TempWeatherWind HumidityBarometerVisibility
7:00 am
Thu, Oct 17
43 °FClear.8 mph76%30.33 "Hg10 mi
6:30 am45 °FClear.8 mph66%30.33 "Hg10 mi
6:00 am45 °FClear.8 mph66%30.33 "Hg10 mi
5:30 am45 °FClear.8 mph66%30.33 "Hg10 mi
5:00 am46 °FClear.8 mph62%30.33 "Hg10 mi
4:30 am46 °FClear.10 mph62%30.33 "Hg10 mi
4:00 am48 °FClear.8 mph62%30.33 "Hg10 mi
3:30 am48 °FClear.8 mph62%30.33 "Hg10 mi
3:00 am50 °FClear.10 mph58%30.33 "Hg10 mi
2:30 am52 °FClear.10 mph54%30.33 "Hg10 mi
2:00 am52 °FClear.10 mph54%30.33 "Hg10 mi
1:30 am54 °FClear.10 mph54%30.30 "Hg10 mi
1:00 am52 °FClear.10 mph62%30.30 "Hg10 mi
12:30 am54 °FClear.10 mph63%30.30 "Hg10 mi
12:00 am54 °FClear.10 mph63%30.30 "Hg10 mi
11:30 pm
Wed, Oct 16
55 °FClear.13 mph59%30.30 "Hg10 mi
11:00 pm57 °FClear.13 mph59%30.27 "Hg10 mi
10:30 pm57 °FClear.13 mph59%30.27 "Hg10 mi
10:00 pm59 °FClear.15 mph55%30.27 "Hg10 mi
9:30 pm61 °FClear.15 mph55%30.24 "Hg10 mi
9:00 pm61 °FClear.15 mph55%30.24 "Hg10 mi
8:30 pm63 °FClear.13 mph56%30.24 "Hg10 mi
8:00 pm64 °FClear.10 mph52%30.21 "Hg10 mi
7:30 pm66 °FClear.8 mph52%30.21 "Hg10 mi
7:00 pm64 °FClear.3 mph56%30.21 "Hg10 mi
6:30 pm68 °FSunny.3 mph46%30.18 "Hg10 mi
6:00 pm70 °FSunny.3 mph40%30.18 "Hg10 mi
5:30 pm72 °FPassing clouds.3 mph38%30.18 "HgN/A
5:00 pm72 °FSunny.6 mph36%30.15 "Hg10 mi
4:30 pm72 °FSunny.6 mph33%30.15 "Hg10 mi
4:00 pm73 °FPassing clouds.6 mph33%30.15 "HgN/A
3:30 pm72 °FPassing clouds.6 mph33%30.15 "HgN/A
3:00 pm73 °FPassing clouds.6 mph38%30.15 "HgN/A
2:30 pm73 °FPassing clouds.6 mph41%30.15 "HgN/A
2:00 pm72 °FPassing clouds.3 mph44%30.15 "HgN/A
1:30 pm70 °FPassing clouds.3 mph46%30.18 "HgN/A
1:00 pm70 °FSunny.1 mph50%30.18 "Hg10 mi
12:30 pm68 °FPassing clouds.3 mph53%30.18 "HgN/A
12:00 pm64 °FPassing clouds.6 mph68%30.18 "HgN/A
11:30 am61 °FPassing clouds.3 mph88%30.18 "HgN/A
11:00 am57 °FSunny.1 mph94%30.18 "Hg10 mi
10:30 am55 °FSunny.1 mph100%30.18 "Hg10 mi
10:00 am54 °FScattered clouds.1 mph100%30.15 "HgN/A
9:30 am54 °FCool.3 mph100%30.15 "Hg1 mi
9:00 am52 °FFog.1 mph100%30.15 "Hg0 mi
8:30 am52 °FCool.1 mph100%30.15 "Hg0 mi
8:00 am52 °FCool.1 mph100%30.15 "Hg0 mi
Weather by CustomWeather, © 2019

See weather overview